Tracking 35280 objects as of 6-Sep-2026
HD Live streaming from Space Station
objects crossing your sky now

COSMOS 1653 DEB


COSMOS 1653 DEB is no longer on orbit


NORAD ID: 15794
Int'l Code: 1985-038G
Launch date: May 22, 1985
Source: Commonwealth of Independent States (former USSR) (CIS)
Launch site: PLESETSK MISSILE AND SPACE COMPLEX (PKMTR)
Decay date: 1985-06-06

Note: This is SATELLITE DEBRIS
Your satellite tracking list
Your tracking list is empty




NASA's NSSDC Master Catalog

Two Line Element Set (TLE):
1 15794U 85038  G 85157.08108164  .12088663 -97635-5 +55556-2 0  9992
2 15794 082.3450 018.2700 0028004 262.2728 098.7574 16.20822581002367
Source of the keplerian elements: AFSPC